• In Belgien
  • Länderverzeichnis
  • Für 7 Tage
  • Wassertemperatur
  • Satellitenkarten
  • Wetterkarte
  • Widgets
  • user-avatar
    Anmelden

    Stündliche Wetter Cairns

    Heute, 21 August, Montag

    Zeit Temperatur Niederschläge Wind Luftdruck Luftfeuchtigkeit
    00:00 +17°C° 0 mm 4 m/S 762 mmHg 93%
    01:00 +17°C° 0 mm 4 m/S 762 mmHg 94%
    02:00 +17°C° 0 mm 4 m/S 762 mmHg 94%
    03:00 +17°C° 0 mm 4 m/S 761 mmHg 94%
    04:00 +17°C° 0 mm 3 m/S 761 mmHg 94%
    05:00 +17°C° 0 mm 3 m/S 761 mmHg 94%
    06:00 +17°C° 0 mm 3 m/S 762 mmHg 94%
    07:00 +17°C° 0 mm 4 m/S 762 mmHg 94%
    08:00 +20°C° 0 mm 4 m/S 762 mmHg 82%
    09:00 +22°C° 0 mm 4 m/S 762 mmHg 70%
    10:00 +26°C° 0 mm 4 m/S 762 mmHg 55%
    11:00 +27°C° 0 mm 4 m/S 762 mmHg 52%
    12:00 +28°C° 0 mm 5 m/S 762 mmHg 49%
    13:00 +29°C° 0 mm 5 m/S 761 mmHg 46%
    14:00 +28°C° 0 mm 5 m/S 761 mmHg 47%
    15:00 +28°C° 0 mm 5 m/S 761 mmHg 49%
    16:00 +27°C° 0 mm 5 m/S 761 mmHg 50%
    17:00 +25°C° 0 mm 4 m/S 761 mmHg 60%
    18:00 +21°C° 0 mm 4 m/S 761 mmHg 69%
    19:00 +19°C° 0 mm 4 m/S 762 mmHg 78%
    20:00 +18°C° 0 mm 3 m/S 762 mmHg 82%
    21:00 +17°C° 0 mm 3 m/S 762 mmHg 86%
    22:00 +16°C° 0 mm 3 m/S 763 mmHg 90%
    23:00 +16°C° 0 mm 3 m/S 763 mmHg 91%

    Morgen, 22 August, Dienstag

    Zeit Temperatur Niederschläge Wind Luftdruck Luftfeuchtigkeit
    00:00 +16°C° 0 mm 3 m/S 763 mmHg 92%
    01:00 +16°C° 0 mm 3 m/S 763 mmHg 93%
    02:00 +16°C° 0 mm 3 m/S 762 mmHg 93%
    03:00 +16°C° 0 mm 2 m/S 762 mmHg 94%
    04:00 +16°C° 0 mm 2 m/S 762 mmHg 94%
    05:00 +16°C° 0 mm 2 m/S 762 mmHg 94%
    06:00 +16°C° 0 mm 2 m/S 762 mmHg 94%
    07:00 +16°C° 0 mm 2 m/S 762 mmHg 94%
    08:00 +20°C° 0 mm 3 m/S 763 mmHg 81%
    09:00 +24°C° 0 mm 3 m/S 763 mmHg 68%
    10:00 +27°C° 0 mm 3 m/S 763 mmHg 56%
    11:00 +28°C° 0 mm 3 m/S 762 mmHg 52%
    12:00 +30°C° 0 mm 4 m/S 762 mmHg 48%
    13:00 +32°C° 0 mm 4 m/S 761 mmHg 44%
    14:00 +30°C° 0 mm 4 m/S 761 mmHg 47%
    15:00 +30°C° 0 mm 4 m/S 761 mmHg 50%
    16:00 +29°C° 0 mm 4 m/S 761 mmHg 52%
    17:00 +27°C° 0 mm 4 m/S 761 mmHg 65%
    18:00 +24°C° 0 mm 3 m/S 761 mmHg 77%
    19:00 +21°C° 0 mm 3 m/S 762 mmHg 89%
    20:00 +20°C° 0 mm 3 m/S 762 mmHg 91%
    21:00 +19°C° 0 mm 3 m/S 763 mmHg 93%
    22:00 +19°C° 0 mm 3 m/S 763 mmHg 95%
    23:00 +19°C° 0 mm 3 m/S 763 mmHg 95%

    übermorgen, 23 August, Mittwoch

    Zeit Temperatur Niederschläge Wind Luftdruck Luftfeuchtigkeit
    00:00 +18°C° 0 mm 3 m/S 763 mmHg 95%
    01:00 +18°C° 0 mm 3 m/S 763 mmHg 95%
    02:00 +18°C° 0 mm 3 m/S 762 mmHg 96%
    03:00 +18°C° 0 mm 3 m/S 762 mmHg 96%
    04:00 +18°C° 0 mm 3 m/S 762 mmHg 96%
    05:00 +18°C° 0 mm 3 m/S 762 mmHg 97%
    06:00 +18°C° 0 mm 3 m/S 763 mmHg 97%
    07:00 +19°C° 0 mm 3 m/S 763 mmHg 97%
    08:00 +21°C° 0 mm 3 m/S 763 mmHg 86%
    09:00 +25°C° 0 mm 4 m/S 763 mmHg 75%
    10:00 +27°C° 0 mm 4 m/S 763 mmHg 64%
    11:00 +28°C° 0 mm 4 m/S 763 mmHg 59%
    12:00 +29°C° 0 mm 4 m/S 762 mmHg 54%
    13:00 +30°C° 0 mm 4 m/S 761 mmHg 49%
    14:00 +30°C° 0 mm 4 m/S 761 mmHg 50%
    15:00 +30°C° 0 mm 4 m/S 761 mmHg 50%
    16:00 +29°C° 0 mm 4 m/S 760 mmHg 51%
    17:00 +27°C° 0 mm 4 m/S 761 mmHg 62%
    18:00 +23°C° 0 mm 4 m/S 761 mmHg 74%
    19:00 +21°C° 0 mm 4 m/S 762 mmHg 85%
    20:00 +20°C° 0 mm 4 m/S 762 mmHg 88%
    21:00 +20°C° 0 mm 4 m/S 762 mmHg 91%
    22:00 +19°C° 0 mm 4 m/S 763 mmHg 94%
    23:00 +19°C° 0 mm 3 m/S 762 mmHg 95%

    24 August, Donnerstag

    Zeit Temperatur Niederschläge Wind Luftdruck Luftfeuchtigkeit
    00:00 +19°C° 0 mm 3 m/S 762 mmHg 95%
    01:00 +18°C° 0 mm 3 m/S 761 mmHg 96%
    02:00 +18°C° 0 mm 3 m/S 761 mmHg 97%
    03:00 +18°C° 0 mm 3 m/S 761 mmHg 97%
    04:00 +18°C° 0 mm 3 m/S 760 mmHg 98%
    05:00 +18°C° 0 mm 3 m/S 761 mmHg 97%
    06:00 +18°C° 0 mm 3 m/S 761 mmHg 97%
    07:00 +18°C° 0 mm 3 m/S 761 mmHg 97%
    08:00 +21°C° 0 mm 3 m/S 761 mmHg 84%
    09:00 +25°C° 0 mm 3 m/S 762 mmHg 71%
    10:00 +28°C° 0 mm 3 m/S 762 mmHg 58%
    11:00 +29°C° 0 mm 3 m/S 761 mmHg 53%
    12:00 +30°C° 0 mm 3 m/S 760 mmHg 48%
    13:00 +32°C° 0 mm 4 m/S 760 mmHg 44%
    14:00 +32°C° 0 mm 4 m/S 759 mmHg 46%
    15:00 +32°C° 0 mm 4 m/S 759 mmHg 48%
    16:00 +30°C° 0 mm 4 m/S 758 mmHg 51%
    17:00 +28°C° 0 mm 3 m/S 759 mmHg 62%
    18:00 +25°C° 0 mm 3 m/S 759 mmHg 74%
    19:00 +22°C° 0 mm 3 m/S 759 mmHg 86%
    20:00 +21°C° 0 mm 3 m/S 760 mmHg 89%
    21:00 +20°C° 0 mm 2 m/S 760 mmHg 91%
    22:00 +20°C° 0 mm 2 m/S 761 mmHg 94%
    23:00 +19°C° 0 mm 2 m/S 760 mmHg 94%

    25 August, Freitag

    Zeit Temperatur Niederschläge Wind Luftdruck Luftfeuchtigkeit
    00:00 +20°C° 0 mm 1 m/S 760 mmHg 94%
    01:00 +20°C° 0 mm 1 m/S 760 mmHg 94%
    02:00 +20°C° 0 mm 1 m/S 759 mmHg 93%
    03:00 +19°C° 0 mm 2 m/S 759 mmHg 93%
    04:00 +18°C° 0 mm 2 m/S 759 mmHg 92%
    05:00 +18°C° 0 mm 2 m/S 760 mmHg 90%
    06:00 +19°C° 0 mm 2 m/S 760 mmHg 88%
    07:00 +19°C° 0 mm 2 m/S 761 mmHg 87%
    08:00 +22°C° 0 mm 3 m/S 761 mmHg 74%
    09:00 +25°C° 0 mm 3 m/S 761 mmHg 62%
    10:00 +28°C° 0 mm 4 m/S 761 mmHg 50%
    11:00 +29°C° 0 mm 4 m/S 760 mmHg 46%
    12:00 +32°C° 0 mm 4 m/S 760 mmHg 43%
    13:00 +33°C° 0 mm 5 m/S 759 mmHg 40%
    14:00 +32°C° 0 mm 5 m/S 759 mmHg 42%
    15:00 +32°C° 0 mm 5 m/S 758 mmHg 43%
    16:00 +30°C° 0 mm 5 m/S 758 mmHg 45%
    17:00 +28°C° 0 mm 4 m/S 759 mmHg 56%
    18:00 +25°C° 0 mm 4 m/S 759 mmHg 66%
    19:00 +21°C° 0 mm 4 m/S 760 mmHg 76%
    20:00 +21°C° 0 mm 3 m/S 760 mmHg 77%
    21:00 +20°C° 0 mm 3 m/S 761 mmHg 77%
    22:00 +19°C° 0 mm 3 m/S 761 mmHg 77%
    23:00 +19°C° 0 mm 3 m/S 761 mmHg 73%

    26 August, Samstag

    Zeit Temperatur Niederschläge Wind Luftdruck Luftfeuchtigkeit
    00:00 +19°C° 0 mm 3 m/S 760 mmHg 70%
    01:00 +18°C° 0 mm 3 m/S 760 mmHg 66%
    02:00 +18°C° 0 mm 3 m/S 760 mmHg 69%
    03:00 +18°C° 0 mm 4 m/S 760 mmHg 72%
    04:00 +18°C° 0 mm 4 m/S 760 mmHg 75%
    05:00 +18°C° 0 mm 4 m/S 760 mmHg 80%
    06:00 +18°C° 0 mm 4 m/S 761 mmHg 85%
    07:00 +18°C° 0 mm 4 m/S 761 mmHg 90%
    08:00 +21°C° 0,1 mm 5 m/S 762 mmHg 83%
    09:00 +23°C° 0,1 mm 5 m/S 762 mmHg 77%
    10:00 +26°C° 0,1 mm 6 m/S 762 mmHg 70%
    11:00 +26°C° 0,1 mm 6 m/S 761 mmHg 68%
    12:00 +27°C° 0,1 mm 6 m/S 761 mmHg 66%
    13:00 +27°C° 0,1 mm 6 m/S 760 mmHg 64%
    14:00 +27°C° 0 mm 6 m/S 760 mmHg 65%
    15:00 +27°C° 0 mm 6 m/S 760 mmHg 66%
    16:00 +26°C° 0 mm 6 m/S 760 mmHg 67%
    17:00 +24°C° 0 mm 6 m/S 760 mmHg 75%
    18:00 +22°C° 0 mm 5 m/S 761 mmHg 82%
    19:00 +21°C° 0 mm 5 m/S 761 mmHg 90%
    20:00 +20°C° 0 mm 5 m/S 762 mmHg 91%
    21:00 +20°C° 0 mm 5 m/S 762 mmHg 92%
    22:00 +19°C° 0 mm 4 m/S 762 mmHg 94%
    23:00 +19°C° 0 mm 4 m/S 762 mmHg 94%
    Mehr zeigen